Showing default

FLOCK 4G 33, 62685

Orbit data source: Space-Track

FLOCK 4G 33, 62685 is a payload satellite owned by Planet (US) in SSO that was launched on Tue, 14 Jan 2025 UTC via an FALCON 9 launch vehicle from the Air Force Western Test Range (AFWTR). Payload-class satellites include a variety of spacecraft equipped with specific instruments for various scientific and technological missions. These include communications satellites like Starlink; space stations such as the ISS; scientific satellites like the Hubble; Earth observation satellites from companies like Planet Labs, Umbra, and HawkEye 360; GPS; miniature CubeSats for education and research; and military/defense satellites.

Loading next visibility...
Identifier
62685, 2025-009CE
Orbit
SSO
Country
Flag of USUS
Related business
Manufacturer
Planet
Mission
Partially operational Commercial Imaging
Bus & Motor
CUBESAT 3U, Unknown motor
Mass
5.7 kg wet, 5.7 kg dry
Launch date (UTC)
2025-01-14 (1 year ago)
Launch vehicle
FALCON 9
Launch site
Air Force Western Test Range (AFWTR)
Object type
Payload
Rocket body
Debris
Shape & HBR
Box + 2 Pan, 1.0 m
Radar Cross Section
0.072 m², Medium (>0.1 m² and < 1m²)

Expand to show TLE details & history
Last TLE update: 9 hours ago

TLE from 9 hours ago
0 FLOCK 4G 33
1 62685U 25009CE  26126.19414589  .00005752  00000-0  23337-3 0  9991
2 62685  97.3945 206.5630 0007112 114.6186 245.5794 15.24981557 72402
Epoch: 2026-05-06T04:39Z
TLE epoch observation values (Epoch: 2026-05-06T04:39:34.204Z)
Latitude
0.00001°
Longitude
-87.38766°
Altitude
495.961 km
Speed
7.616 km/s
True Right ascension
13h 46m 15s
True Declination
0° 00' 00"
Sunlit
Object was in full shadow at epoch
Visualization orbit readout
Latitude
Unknown
Longitude
Unknown
Altitude
Unknown
Speed
Unknown
Apparent Right ascension
Unknown
Apparent Declination
Unknown
Sunlit
N/A
Visualization observer readout
Local Sidereal Time
21:21:49
Azimuth
Unknown
Elevation
Unknown
Doppler factor
Unknown
Orbital elements
Apogee altitude
492.683 km
Perigee altitude
482.916 km
Semi-major axis
6,865.937 km
Eccentricity
0.00071
Inclination
97.3945°
RAAN
206.563°
Arg. of periapsis
114.6186°
True anomaly
245.50522°
Mean anomaly
245.5794°
Eccentric anomaly
245.54231°
Mean motion
3.81499 °/min
Orbital period
94.36 mins
BSTAR
0.00023337
Loading maneuver chart data...
Computing Atmospheric mass density...
Loading historical data...
Loading historical data...
Loading historical data...
Loading historical data...
Loading historical data...
Loading historical data...
Loading historical data...

Documentation

Showing up to 5 results
|